TimeCDT,TemperatureF,Dew PointF,Humidity,Sea Level PressureIn,VisibilityMPH,Wind Direction,Wind SpeedMPH,Gust SpeedMPH,PrecipitationIn,Events,Conditions,WindDirDegrees,DateUTC
12:53 AM,52.0,46.9,83,29.81,10.0,SW,4.6,-,N/A,,Clear,230,2013-11-01 05:53:00
1:53 AM,50.0,46.9,89,29.81,10.0,WSW,4.6,-,N/A,,Clear,240,2013-11-01 06:53:00
2:53 AM,51.1,46.9,86,29.81,10.0,Calm,Calm,-,N/A,,Clear,0,2013-11-01 07:53:00
3:53 AM,48.0,45.0,89,29.81,10.0,Calm,Calm,-,N/A,,Clear,0,2013-11-01 08:53:00
4:53 AM,46.9,44.1,90,29.81,10.0,Calm,Calm,-,N/A,,Clear,0,2013-11-01 09:53:00
5:53 AM,46.0,44.1,93,29.82,10.0,Calm,Calm,-,N/A,,Clear,0,2013-11-01 10:53:00
6:53 AM,45.0,42.1,90,29.83,10.0,Calm,Calm,-,N/A,,Clear,0,2013-11-01 11:53:00
7:14 AM,44.6,42.8,93,29.84,5.0,NNE,3.5,-,N/A,,Partly Cloudy,30,2013-11-01 12:14:00
7:16 AM,44.6,42.8,93,29.84,1.2,NE,3.5,-,N/A,,Scattered Clouds,40,2013-11-01 12:16:00
7:20 AM,44.6,42.8,93,29.84,0.2,Calm,Calm,-,N/A,Fog,Fog,0,2013-11-01 12:20:00
7:53 AM,45.0,43.0,93,29.85,0.2,Calm,Calm,-,N/A,Fog,Fog,0,2013-11-01 12:53:00
8:53 AM,46.9,46.0,97,29.87,0.2,Calm,Calm,-,N/A,Fog,Fog,0,2013-11-01 13:53:00
9:04 AM,48.2,46.4,93,29.88,1.0,Calm,Calm,-,N/A,,Mist,0,2013-11-01 14:04:00
9:06 AM,48.2,46.4,93,29.88,2.5,Calm,Calm,-,N/A,,Mostly Cloudy,0,2013-11-01 14:06:00
9:13 AM,50.0,48.2,94,29.88,9.0,Calm,Calm,-,N/A,,Clear,0,2013-11-01 14:13:00
9:24 AM,50.0,48.2,94,29.88,10.0,Calm,Calm,-,N/A,,Partly Cloudy,0,2013-11-01 14:24:00
9:53 AM,55.9,50.0,80,29.88,10.0,Calm,Calm,-,N/A,,Clear,0,2013-11-01 14:53:00
10:53 AM,62.1,46.9,58,29.89,10.0,WSW,8.1,-,N/A,,Clear,240,2013-11-01 15:53:00
11:53 AM,66.0,45.0,47,29.89,10.0,WSW,8.1,-,N/A,,Clear,240,2013-11-01 16:53:00
12:53 PM,68.0,43.0,40,29.87,10.0,WSW,10.4,-,N/A,,Clear,250,2013-11-01 17:53:00
1:53 PM,71.1,37.9,30,29.86,10.0,West,16.1,-,N/A,,Clear,260,2013-11-01 18:53:00
2:53 PM,72.0,41.0,33,29.85,9.0,WNW,15.0,-,N/A,,Clear,290,2013-11-01 19:53:00
3:53 PM,72.0,42.1,34,29.83,9.0,WSW,13.8,-,N/A,,Clear,250,2013-11-01 20:53:00
4:53 PM,71.1,43.0,36,29.83,10.0,SW,11.5,-,N/A,,Clear,230,2013-11-01 21:53:00
5:53 PM,68.0,44.1,42,29.84,10.0,WSW,9.2,-,N/A,,Clear,240,2013-11-01 22:53:00
6:53 PM,64.9,44.1,47,29.88,10.0,WNW,8.1,-,N/A,,Clear,300,2013-11-01 23:53:00
7:53 PM,63.0,39.9,43,29.91,10.0,WNW,8.1,-,N/A,,Clear,300,2013-11-02 00:53:00
8:53 PM,62.1,41.0,46,29.95,10.0,WNW,8.1,-,N/A,,Clear,290,2013-11-02 01:53:00
9:53 PM,61.0,41.0,48,29.99,10.0,NW,9.2,-,N/A,,Mostly Cloudy,320,2013-11-02 02:53:00
10:53 PM,59.0,41.0,51,30.02,10.0,WNW,8.1,-,N/A,,Clear,300,2013-11-02 03:53:00
11:53 PM,55.9,42.1,60,30.02,10.0,WNW,6.9,-,N/A,,Clear,300,2013-11-02 04:53:00